TimeAKDT,TemperatureF,Dew PointF,Humidity,Sea Level PressureIn,VisibilityMPH,Wind Direction,Wind SpeedMPH,Gust SpeedMPH,PrecipitationIn,Events,Conditions,WindDirDegrees,DateUTC
12:10 AM,42.8,41.0,93,30.11,3.0,Calm,Calm,-,0.02,Rain,Light Rain,0,2012-10-06 08:10:00
12:53 AM,42.1,41.0,96,30.12,3.0,Variable,3.5,-,0.06,Rain,Light Rain,0,2012-10-06 08:53:00
1:53 AM,42.1,41.0,96,30.12,4.0,NNE,4.6,-,0.08,Rain,Light Rain,20,2012-10-06 09:53:00
2:01 AM,42.8,41.0,93,30.10,4.0,NNE,3.5,-,0.00,Rain,Light Rain,30,2012-10-06 10:01:00
2:53 AM,42.1,41.0,96,30.11,4.0,Calm,Calm,-,0.11,Rain,Rain,0,2012-10-06 10:53:00
3:21 AM,41.0,41.0,100,30.09,6.0,Calm,Calm,-,0.03,Rain,Light Rain,0,2012-10-06 11:21:00
3:53 AM,42.1,41.0,96,30.11,10.0,Calm,Calm,-,0.06,Rain,Light Rain,0,2012-10-06 11:53:00
4:42 AM,42.8,41.0,93,30.09,8.0,WSW,3.5,-,0.04,Rain,Light Rain,240,2012-10-06 12:42:00
4:53 AM,41.0,41.0,100,30.11,6.0,Variable,4.6,-,0.05,Rain,Rain,0,2012-10-06 12:53:00
5:25 AM,42.8,41.0,93,30.10,6.0,Calm,Calm,-,0.05,Rain,Rain,0,2012-10-06 13:25:00
5:53 AM,42.1,42.1,100,30.11,4.0,Calm,Calm,-,0.11,Rain,Rain,0,2012-10-06 13:53:00
6:53 AM,43.0,43.0,100,30.13,4.0,Variable,3.5,-,0.16,Rain,Heavy Rain,0,2012-10-06 14:53:00
7:10 AM,46.4,44.6,93,30.13,4.0,SSW,6.9,-,0.07,Rain,Rain,200,2012-10-06 15:10:00
7:53 AM,46.0,44.1,93,30.14,10.0,SSE,6.9,-,0.11,Rain,Light Rain,160,2012-10-06 15:53:00
8:23 AM,46.4,44.6,93,30.14,10.0,South,8.1,18.4,0.01,Rain,Light Rain,170,2012-10-06 16:23:00
8:53 AM,46.0,44.1,93,30.16,5.0,South,9.2,-,0.02,Rain,Light Rain,170,2012-10-06 16:53:00
9:11 AM,46.4,44.6,93,30.15,9.0,South,6.9,-,0.01,Rain,Light Rain,180,2012-10-06 17:11:00
9:41 AM,44.6,44.6,100,30.16,8.0,South,9.2,-,0.02,Rain,Light Rain,170,2012-10-06 17:41:00
9:53 AM,45.0,44.1,97,30.18,3.0,South,8.1,-,0.03,Rain,Light Rain,170,2012-10-06 17:53:00
10:01 AM,44.6,44.6,100,30.17,3.0,South,8.1,-,0.01,Rain,Light Rain,170,2012-10-06 18:01:00
10:53 AM,46.0,45.0,96,30.20,9.0,South,9.2,-,0.02,,Overcast,190,2012-10-06 18:53:00
11:53 AM,46.0,44.1,93,30.23,10.0,South,6.9,-,N/A,,Overcast,190,2012-10-06 19:53:00
12:12 PM,46.4,44.6,93,30.22,10.0,South,6.9,-,N/A,,Overcast,180,2012-10-06 20:12:00
12:30 PM,46.4,44.6,93,30.23,10.0,South,8.1,-,N/A,,Overcast,180,2012-10-06 20:30:00
12:37 PM,46.4,44.6,93,30.24,10.0,South,6.9,-,N/A,,Overcast,180,2012-10-06 20:37:00
12:53 PM,46.9,44.1,90,30.26,10.0,South,6.9,-,N/A,,Overcast,180,2012-10-06 20:53:00
1:05 PM,46.4,44.6,93,30.24,10.0,South,6.9,-,N/A,,Overcast,170,2012-10-06 21:05:00
1:53 PM,48.0,44.1,86,30.26,10.0,South,5.8,-,N/A,,Overcast,170,2012-10-06 21:53:00
2:53 PM,48.0,44.1,86,30.27,10.0,South,3.5,-,N/A,,Overcast,170,2012-10-06 22:53:00
3:07 PM,48.2,44.6,87,30.25,10.0,South,5.8,-,N/A,,Overcast,180,2012-10-06 23:07:00
3:15 PM,48.2,44.6,87,30.26,10.0,South,5.8,-,N/A,,Overcast,190,2012-10-06 23:15:00
3:53 PM,48.9,43.0,80,30.27,10.0,Variable,4.6,-,N/A,,Overcast,0,2012-10-06 23:53:00
4:53 PM,48.0,43.0,83,30.28,10.0,SSW,3.5,-,N/A,,Overcast,210,2012-10-07 00:53:00
5:19 PM,48.2,44.6,87,30.27,10.0,Calm,Calm,-,0.00,,Overcast,0,2012-10-07 01:19:00
5:53 PM,48.0,44.1,86,30.29,10.0,Calm,Calm,-,0.00,,Overcast,0,2012-10-07 01:53:00
6:53 PM,46.9,43.0,86,30.28,10.0,SSE,4.6,-,N/A,,Scattered Clouds,150,2012-10-07 02:53:00
7:53 PM,46.0,42.1,86,30.29,10.0,Calm,Calm,-,N/A,,Mostly Cloudy,0,2012-10-07 03:53:00
8:08 PM,44.6,42.8,93,30.27,10.0,Calm,Calm,-,N/A,,Scattered Clouds,0,2012-10-07 04:08:00
8:53 PM,42.1,41.0,96,30.28,10.0,Calm,Calm,-,N/A,,Scattered Clouds,0,2012-10-07 04:53:00
9:53 PM,41.0,41.0,100,30.31,10.0,Calm,Calm,-,N/A,,Overcast,0,2012-10-07 05:53:00
10:53 PM,39.9,39.0,97,30.32,10.0,Calm,Calm,-,N/A,,Mostly Cloudy,0,2012-10-07 06:53:00
11:53 PM,39.9,39.9,100,30.32,8.0,Calm,Calm,-,N/A,,Overcast,0,2012-10-07 07:53:00